Regional Weather Roundup
Issued by NWS State College, PA

Home | Current Version | Previous Version | Text Only | Print | Product List | Glossary Off
Versions: 1 2 3 4 5 6 7 8 9 10 11 12 13 14 15 16 17 18 19 20 21 22 23 24 25 26 27 28 29 30 31 32 33 34 35 36 37 38 39 40 41 42 43 44 45 46 47 48 49 50

180
ASUS41 KCTP 222310
RWRCTP

REGIONAL WEATHER ROUNDUP
NATIONAL WEATHER SERVICE STATE COLLEGE PA
700 PM EDT WED MAR 22 2017

Note: "fair" indicates few or no clouds below 12,000 feet with no
significant weather and/or obstructions to visibility.

* = STATION THAT DOES NOT REPORT PRECIPITATION /E.G. RAIN...SNOW...ETC/
    THUNDER OR FOG.

PAZ002>004-007>009-013>016-020>023-029>032-230000-
WESTERN PENNSYLVANIA

CITY           SKY/WX    TMP DP  RH WIND       PRES   REMARKS
ERIE           CLEAR     27   9  46 W7        30.52S
MEADVILLE      CLEAR     25   7  46 N9        30.47R
FRANKLIN*      CLEAR     27   3  36 NW7       30.46R
NEW CASTLE     FAIR      29  10  45 NW10      30.49R
BEAVER COUNTY  CLEAR     32   7  34 N9G16     30.46R
BUTLER*        CLEAR     32   7  34 NW8       30.46R
PITTSBURGH INT CLEAR     35   6  29 NW14      30.44R
PITTSBURGH     CLEAR     35   1  23 NW8G17    30.43R
INDIANA*       CLEAR     32   5  32 N12G18    30.44R
LATROBE        CLEAR     36   1  23 NW13      30.43R
WASHINGTON CO* CLEAR     36   3  25 N8        30.46R
$$

PAZ004>006-010>012-017>019-024>028-033>037-041-042-045-046-049>053-230000-
CENTRAL PENNSYLVANIA

CITY           SKY/WX    TMP DP  RH WIND       PRES   REMARKS
BRADFORD       CLEAR     22   4  46 NW16      30.37R WCI   8
DUBOIS         CLEAR     27  -2  28 N12       30.37R
CLEARFIELD       N/A    N/A N/A N/A MISG      30.39R
JOHNSTOWN      CLEAR     30   3  31 NW12      30.33R
ALTOONA        CLEAR     35   2  24 NW16G25   30.36R
STATE COLLEGE  CLEAR     32  -2  23 NW7       30.37R
WILLIAMSPORT   PTCLDY    32  -2  23 N13G21    30.40R
SELINSGROVE    CLEAR     33   4  29 N10       30.40R
FT INDIANTOWN  CLEAR     34  -2  21 N12G20    30.36R
CAPITAL CITY   CLEAR     40  -1  18 N15       30.36R
HARRISBURG     CLEAR     38   0  20 N10       30.36R
YORK           CLEAR     38   5  25 NW7G16    30.35R
$$

PAZ038>040-043-044-047-048-054-055-060>062-067>071-230000-
EASTERN PENNSYLVANIA

CITY           SKY/WX    TMP DP  RH WIND       PRES   REMARKS
SCRANTON       MOCLDY    23   0  36 NW16G26   30.37R WCI  10
MOUNT POCONO   CLEAR     18  -2  41 NW20G31   30.23R WCI   2
ALLENTOWN      CLEAR     31  -2  24 NW14G25   30.37R
QUAKERTOWN*    CLEAR     30  -2  24 NW12G22   30.35R
READING        CLEAR     33   2  26 N20       30.36R
LANCASTER      CLEAR     35   4  27 N14       30.36R
COATESVILLE    CLEAR     32   0  25 N15       30.35R
POTTSTOWN      CLEAR     32   0  25 N15G24    30.36R
BLUE BELL      CLEAR     32   3  29 N6G17     30.35R
DOYLESTOWN     CLEAR     24  -2  32 NW13G30   30.34R WCI  12
WILLOW GROVE   NOT AVBL
NORTH PHILA    CLEAR     34  -1  22 N20       30.37R
PHILADELPHIA   CLEAR     36   1  22 NW22      30.36R
$$




USA.gov is the U.S. government's official web portal to all federal, state and local government web resources and services.